Location: Trois-Rivi�res
(46.3500°N, 72.5500°W)
Time: 05:00:39
(UTC-05:00)

Envisat - Pass Details

Date: 11 October 2017
Orbit: 764 x 766 km, 98.2° (Epoch: 14 December)

Event Time Altitude Azimuth Distance (km) Brightness Sun altitude
Exits shadow 20:30:49 64° 157° (SSE) 847 3.0 -24.8°
Maximum altitude 20:31:37 86° 76° (ENE) 775 2.9 -25.0°
Drops below altitude 10° 20:36:45 10° 347° (NNW) 2,316 5.8 -25.8°
Sets 20:39:04 0° 347° (NNW) 3,247 6.6 -26.2°
